Total_Precipitation_Accumulation
0.20 0.22 0.29 0.48 0.60 0.51 0.43 0.43 0.53 0.48 0.48 0.52 0.59 0.67 0.63 0.57 0.55 0.54 0.54 0.53 0.55 0.60 0.59 0.52 0.51 0.52 0.63 0.78 0.94 1.13 1.36 1.36 1.21 1.15 1.08 0.94 0.86 0.87 0.84 0.86 0.82 0.82 0.90 0.99
0.13 0.14 0.19 0.29 0.33 0.28 0.22 0.26 0.36 0.41 0.49 0.53 0.60 0.66 0.60 0.51 0.43 0.37 0.35 0.37 0.40 0.42 0.47 0.39 0.33 0.34 0.37 0.49 0.69 0.85 1.04 1.13 1.09 1.01 0.89 0.85 0.84 0.81 0.76 0.75 0.71 0.69 0.71 0.76
0.14 0.13 0.18 0.26 0.24 0.24 0.27 0.28 0.31 0.43 0.54 0.57 0.69 0.87 0.77 0.59 0.49 0.37 0.31 0.30 0.32 0.35 0.39 0.40 0.37 0.34 0.35 0.42 0.52 0.63 0.79 0.89 0.88 0.82 0.73 0.71 0.74 0.71 0.65 0.59 0.60 0.57 0.56 0.54
0.25 0.28 0.39 0.35 0.26 0.33 0.43 0.37 0.36 0.46 0.53 0.62 0.92 1.12 0.75 0.52 0.47 0.39 0.32 0.30 0.30 0.32 0.32 0.32 0.34 0.35 0.36 0.37 0.40 0.45 0.55 0.61 0.62 0.62 0.60 0.60 0.59 0.58 0.59 0.55 0.51 0.49 0.54 0.61
0.38 0.40 0.56 0.47 0.27 0.39 0.46 0.42 0.33 0.43 0.49 0.50 0.53 0.48 0.31 0.21 0.22 0.25 0.21 0.21 0.20 0.20 0.19 0.21 0.22 0.25 0.28 0.32 0.33 0.33 0.36 0.40 0.43 0.46 0.49 0.53 0.54 0.55 0.64 0.63 0.58 0.56 0.66 0.73
0.35 0.38 0.44 0.42 0.24 0.27 0.38 0.47 0.24 0.24 0.26 0.21 0.16 0.16 0.18 0.16 0.12 0.12 0.11 0.12 0.13 0.11 0.11 0.13 0.16 0.18 0.21 0.25 0.28 0.29 0.30 0.32 0.36 0.38 0.41 0.46 0.53 0.53 0.50 0.49 0.53 0.59 0.60 0.56
0.29 0.31 0.24 0.20 0.20 0.25 0.45 0.46 0.20 0.16 0.15 0.11 0.10 0.10 0.14 0.17 0.12 0.09 0.08 0.09 0.09 0.10 0.10 0.12 0.15 0.18 0.20 0.24 0.27 0.28 0.33 0.35 0.36 0.37 0.39 0.42 0.41 0.36 0.36 0.40 0.39 0.38 0.40 0.44
0.27 0.31 0.26 0.18 0.22 0.29 0.29 0.19 0.16 0.16 0.15 0.14 0.11 0.09 0.10 0.13 0.10 0.08 0.08 0.08 0.07 0.09 0.12 0.12 0.13 0.17 0.20 0.25 0.27 0.27 0.29 0.31 0.31 0.30 0.31 0.33 0.34 0.31 0.29 0.33 0.35 0.36 0.38 0.42
0.31 0.30 0.25 0.22 0.24 0.23 0.22 0.20 0.17 0.19 0.16 0.14 0.13 0.11 0.10 0.10 0.09 0.08 0.08 0.09 0.09 0.12 0.17 0.20 0.16 0.17 0.22 0.27 0.30 0.28 0.27 0.26 0.27 0.26 0.27 0.27 0.28 0.31 0.33 0.33 0.35 0.35 0.36 0.42
0.26 0.21 0.20 0.20 0.20 0.21 0.21 0.20 0.16 0.16 0.15 0.15 0.16 0.14 0.12 0.10 0.10 0.09 0.07 0.09 0.12 0.16 0.20 0.25 0.22 0.22 0.24 0.26 0.28 0.28 0.25 0.24 0.25 0.25 0.25 0.24 0.25 0.28 0.30 0.31 0.31 0.35 0.40 0.44
0.22 0.19 0.18 0.16 0.16 0.15 0.15 0.14 0.14 0.14 0.13 0.13 0.14 0.15 0.13 0.10 0.11 0.10 0.09 0.08 0.12 0.18 0.21 0.21 0.22 0.26 0.29 0.28 0.25 0.25 0.24 0.24 0.22 0.25 0.26 0.24 0.21 0.22 0.26 0.29 0.36 0.41 0.44 0.47
0.22 0.17 0.18 0.16 0.13 0.11 0.12 0.11 0.11 0.13 0.12 0.10 0.10 0.11 0.10 0.10 0.12 0.11 0.10 0.11 0.13 0.15 0.17 0.19 0.20 0.24 0.26 0.26 0.23 0.23 0.25 0.24 0.23 0.21 0.22 0.23 0.24 0.21 0.24 0.28 0.36 0.42 0.45 0.46
0.19 0.17 0.16 0.13 0.11 0.12 0.13 0.10 0.08 0.09 0.11 0.10 0.10 0.09 0.09 0.11 0.13 0.12 0.11 0.11 0.12 0.13 0.14 0.17 0.19 0.20 0.21 0.23 0.21 0.19 0.22 0.23 0.22 0.21 0.21 0.21 0.22 0.25 0.27 0.27 0.26 0.28 0.33 0.40
0.14 0.15 0.15 0.12 0.10 0.11 0.13 0.11 0.09 0.08 0.08 0.10 0.10 0.11 0.12 0.13 0.16 0.13 0.13 0.13 0.14 0.15 0.14 0.15 0.18 0.19 0.20 0.22 0.22 0.22 0.24 0.22 0.22 0.24 0.24 0.25 0.24 0.28 0.39 0.45 0.40 0.30 0.30 0.34
0.09 0.11 0.13 0.13 0.12 0.12 0.11 0.10 0.10 0.10 0.10 0.10 0.10 0.11 0.13 0.14 0.17 0.15 0.13 0.13 0.14 0.14 0.14 0.14 0.17 0.19 0.19 0.21 0.23 0.22 0.24 0.26 0.28 0.32 0.29 0.29 0.30 0.35 0.40 0.34 0.32 0.34 0.32 0.33
0.09 0.09 0.11 0.13 0.13 0.12 0.12 0.11 0.11 0.11 0.11 0.12 0.11 0.11 0.12 0.15 0.18 0.16 0.14 0.13 0.13 0.13 0.12 0.13 0.15 0.18 0.19 0.19 0.22 0.20 0.20 0.28 0.32 0.37 0.35 0.28 0.31 0.34 0.32 0.31 0.35 0.38 0.35 0.34
0.13 0.12 0.14 0.15 0.15 0.14 0.15 0.15 0.14 0.13 0.13 0.14 0.14 0.14 0.14 0.13 0.14 0.14 0.13 0.13 0.11 0.10 0.11 0.12 0.14 0.17 0.20 0.21 0.21 0.21 0.21 0.25 0.29 0.34 0.36 0.31 0.33 0.34 0.32 0.31 0.35 0.39 0.40 0.41
0.15 0.15 0.16 0.17 0.18 0.18 0.19 0.19 0.17 0.15 0.15 0.16 0.17 0.16 0.15 0.14 0.16 0.14 0.15 0.14 0.12 0.11 0.13 0.16 0.17 0.17 0.19 0.20 0.20 0.22 0.22 0.25 0.26 0.29 0.31 0.30 0.30 0.32 0.34 0.33 0.32 0.35 0.38 0.41
0.18 0.20 0.21 0.21 0.22 0.21 0.21 0.21 0.20 0.18 0.18 0.19 0.20 0.19 0.17 0.18 0.19 0.17 0.18 0.17 0.15 0.16 0.17 0.19 0.21 0.19 0.19 0.20 0.21 0.21 0.22 0.25 0.25 0.26 0.27 0.27 0.27 0.27 0.31 0.34 0.33 0.35 0.38 0.39
0.24 0.25 0.27 0.29 0.27 0.25 0.24 0.22 0.21 0.21 0.21 0.21 0.22 0.21 0.20 0.19 0.18 0.19 0.20 0.20 0.19 0.21 0.23 0.23 0.21 0.22 0.22 0.22 0.24 0.23 0.24 0.25 0.27 0.28 0.29 0.28 0.28 0.29 0.30 0.30 0.33 0.38 0.38 0.37
0.27 0.26 0.27 0.28 0.29 0.28 0.28 0.27 0.24 0.22 0.22 0.25 0.27 0.28 0.27 0.25 0.25 0.24 0.23 0.24 0.23 0.24 0.25 0.26 0.22 0.23 0.25 0.26 0.28 0.26 0.26 0.28 0.30 0.32 0.33 0.33 0.34 0.34 0.33 0.33 0.36 0.39 0.37 0.36
0.29 0.28 0.28 0.28 0.29 0.28 0.29 0.30 0.27 0.26 0.26 0.28 0.30 0.30 0.31 0.31 0.30 0.29 0.28 0.29 0.30 0.35 0.31 0.28 0.28 0.33 0.36 0.36 0.30 0.29 0.29 0.31 0.34 0.36 0.37 0.37 0.37 0.37 0.37 0.37 0.37 0.37 0.36 0.38
0.28 0.27 0.29 0.30 0.29 0.27 0.28 0.30 0.29 0.27 0.27 0.29 0.29 0.30 0.32 0.31 0.28 0.28 0.31 0.33 0.34 0.39 0.36 0.35 0.39 0.42 0.44 0.37 0.34 0.33 0.34 0.37 0.39 0.38 0.40 0.41 0.42 0.42 0.42 0.43 0.42 0.41 0.40 0.42
0.24 0.26 0.28 0.28 0.27 0.27 0.29 0.29 0.28 0.28 0.27 0.25 0.24 0.25 0.29 0.32 0.31 0.28 0.31 0.37 0.42 0.43 0.38 0.41 0.44 0.45 0.44 0.37 0.35 0.34 0.36 0.40 0.42 0.41 0.43 0.44 0.45 0.44 0.45 0.45 0.45 0.44 0.44 0.45
0.22 0.23 0.24 0.25 0.26 0.27 0.26 0.26 0.26 0.26 0.26 0.25 0.23 0.22 0.25 0.30 0.35 0.35 0.36 0.38 0.44 0.46 0.43 0.44 0.45 0.43 0.37 0.36 0.37 0.36 0.38 0.41 0.46 0.48 0.48 0.49 0.47 0.46 0.46 0.47 0.48 0.50 0.49 0.50
0.23 0.23 0.23 0.23 0.25 0.27 0.26 0.28 0.29 0.28 0.29 0.29 0.26 0.25 0.29 0.31 0.33 0.36 0.40 0.44 0.46 0.50 0.47 0.44 0.43 0.42 0.39 0.40 0.42 0.42 0.43 0.45 0.47 0.48 0.49 0.51 0.50 0.49 0.49 0.50 0.51 0.53 0.55 0.57
0.24 0.24 0.24 0.25 0.26 0.28 0.31 0.33 0.35 0.36 0.36 0.34 0.32 0.31 0.35 0.40 0.39 0.38 0.40 0.44 0.47 0.49 0.49 0.49 0.49 0.50 0.52 0.53 0.54 0.53 0.52 0.50 0.46 0.47 0.50 0.52 0.53 0.54 0.54 0.54 0.55 0.56 0.59 0.60